Regional Weather Roundup
Issued by NWS

Home | Current Version | Previous Version | Graphics & Text | Print | Product List | Glossary On
Versions: 1 2 3 4 5 6 7 8 9 10 11 12 13 14 15 16 17 18 19 20 21 22 23 24 25 26 27 28 29 30 31 32 33 34 35 36 37 38 39 40 41 42 43 44 45 46 47 48 49 50
654
ASUS43 KMPX 250701
RWRMN
WEATHER ROUNDUP FOR MINNESOTA
NATIONAL WEATHER SERVICE TWIN CITIES/CHANHASSEN MN
100 AM CST SUN FEB 25 2018


NOTE: "FAIR" INDICATES FEW OR NO CLOUDS BELOW 12,000 FEET WITH NO
SIGNIFICANT WEATHER AND/OR OBSTRUCTIONS TO VISIBILITY. N/A MEANS
CURRENT SKY AND/OR WEATHER CONDITIONS ARE NOT AVAILABLE.

MNZ060>063-068>070-250800-
   Twin Cities Metro

CITY           SKY/WX    TMP DP  RH WIND       PRES   REMARKS
TWIN CITIES    CLOUDY    21  19  92 W15G21    29.50R WCI   8
ST PAUL        CLOUDY    23  19  85 W17       29.50R FOG     WCI   9
CRYSTAL        CLOUDY    22  18  85 W14       29.47R FOG     WCI   9
BLAINE         MOCLDY    25  25 100 W12G18    29.47R WCI  14
LAKEVILLE      CLOUDY    18  18 100 W14G23    29.51R WCI   4
EDEN PRAIRIE   CLOUDY    20  15  81 W14G22    29.50R HAZE    WCI   7
SOUTH ST PAUL  FAIR      23  20  87 W13       29.49R FOG     WCI  11
LAKE ELMO      CLOUDY    25  23  93 W16G25    29.47R FOG     WCI  12
$$
MNZ001>005-007-008-013>017-022>024-027-028-250800-
   Northwest Minnesota

CITY           SKY/WX    TMP DP  RH WIND       PRES   REMARKS
BEMIDJI        FLURRIES  19  17  93 W6        29.43F WCI  10
HALLOCK        LGT SNOW  18  16  93 CALM      29.52F
ROSEAU         LGT SNOW  21  16  79 NE5       29.50F WCI  15
WARROAD        LGT SNOW  19  16  86 N7        29.50F WCI  10
THIEF RVR FALL FLURRIES  18  16  92 N5        29.50F WCI  11
CROOKSTON      FAIR      16  16 100 CALM      29.52F
FOSSTON        CLOUDY    16  14  93 NW5       29.48F WCI   9
DETROIT LAKES  CLOUDY    18  18 100 NW6       29.48F WCI   9
MOORHEAD       CLOUDY    12  10  92 W8        29.54S WCI   1
PARK RAPIDS    CLOUDY    19  15  84 NW7       29.42F WCI  10
MAHNOMEN       CLOUDY    15  13  92 NW6       29.48F WCI   6
$$
MNZ006-009>011-018-025>026-250800-
   North Central Minnesota

CITY           SKY/WX    TMP DP  RH WIND       PRES   REMARKS
BAUDETTE       LGT SNOW  21  19  92 N9        29.46F VSB 1   WCI  11
FLAG ISLAND    LGT SNOW  19  18  93 N9        29.50F WCI   9
INTL FALLS     LGT SNOW  23  21  92 NE7       29.43F VSB 1   WCI  15
WASKISH        LGT SNOW  21  19  93 N3        29.45F
LONGVILLE      LGT SNOW  21  19  93 NW5       29.41F WCI  15
GRAND RAPIDS   LGT SNOW  22  20  92 NW6       29.39F FOG     WCI  14
CRANE LAKE     LGT SNOW  21  19  93 CALM      29.43F VSB 3/4
ORR            LGT SNOW  21  18  86 CALM      29.37F
COOK           LGT SNOW  21  19  93 NE3       29.37F
WALKER         LGT SNOW  19  17  93 W5        29.42F VSB 1   WCI  12
$$
MNZ012-019>021-037-250800-
   Northeast Minnesota

CITY           SKY/WX    TMP DP  RH WIND       PRES   REMARKS
DULUTH         LGT SNOW  28  25  88 E15       29.33F VSB 3/4 WCI  16
ELY            LGT SNOW  25  25 100 E3        29.36F
HIBBING        LGT SNOW  23  21  92 N6        29.36F VSB 1   WCI  16
DULUTH HARBOR  LGT SNOW  30  28  93 NE18      29.37F VSB 1   WCI  18
TWO HARBORS    LGT SNOW  30  27  86 E17       29.34F WCI  18
GRAND MARAIS     N/A     30  29  96 NE16G31   29.43F WCI  19
G MARAIS ARPRT SNOW      25  19  80 E14G22    29.37F VSB 1/2 WCI  13
$$
MNZ029>031-032-039>041-046>048-054>057-064-250800-
   West Central Minnesota

CITY           SKY/WX    TMP DP  RH WIND       PRES   REMARKS
FERGUS FALLS   CLOUDY     9   7  92 W12       29.54R FOG     WCI  -6
WHEATON        CLEAR     12  10  92 W5        29.59S WCI   4
MORRIS         CLOUDY     9   7  92 W13       29.55R WCI  -7
ALEXANDRIA     CLOUDY    17  15  92 W13       29.48S WCI   4
ELBOW LAKE     CLOUDY    13  11  94 NW13      29.53S WCI  -2
WADENA         MIX PCPN  18  16  93 W5        29.45S WCI  11
GLENWOOD       MOCLDY    18  18 100 W14       29.49S WCI   4
APPLETON       PTCLDY     9   7  92 W12       29.58R WCI  -6
ORTONVILLE     CLOUDY    12  10  92 W10       29.58R WCI  -1
MADISON        CLEAR     14  10  85 W12       29.60S WCI   0
WILLMAR        CLOUDY    10   9  92 W17G25    29.56R WCI  -7
$$
MNZ033>034-036-042>043-049>051-058-059-250800-
   Central Minnesota

CITY           SKY/WX    TMP DP  RH WIND       PRES   REMARKS
ST CLOUD       LGT SNOW  23  20  88 W13       29.45S FOG     WCI  11
SAUK CENTRE    CLOUDY    18  16  92 W10       29.47S WCI   7
PAYNESVILLE    CLOUDY    17  16  95 W16       29.49S WCI   2
AITKIN         LGT SNOW  21  19  93 CALM      29.39F
PINE RIVER     LGT SNOW  19  16  86 NW5       29.46F WCI  13
BRAINERD       CLOUDY    22  17  81 W9        29.41F WCI  12
STAPLES        CLOUDY    18  18 100 W8        29.44F WCI   7
LONG PRAIRIE   FAIR      19  18  93 SW7       29.46S WCI  10
LITTLE FALLS   FLURRIES  23  18  80 W7        29.45S WCI  15
LITCHFIELD     FAIR      16  14  93 W9        29.52R WCI   4
BUFFALO        LGT SNOW  19  16  86 W10G18    29.50R WCI   8
MAPLE LAKE     LGT SNOW  20  18  91 W8        29.49R WCI  11
HUTCHINSON     MOCLDY    14  11  88 W17       29.54R WCI  -2
$$
MNZ037-044-045-052-053-250800-
   East Central Minnesota

CITY           SKY/WX    TMP DP  RH WIND       PRES   REMARKS
PRINCETON      FLURRIES  27  23  86 W9G20     29.43S WCI  17
CAMBRIDGE      FLURRIES  28  23  80 SW10G18   29.43R WCI  19
RUSH CITY      LGT SNOW  27  26  94 W9        29.40S WCI  18
MOOSE LAKE     LGT SNOW  25  23  93 CALM      29.35F
HINCKLEY       LGT SNOW  27  27 100 W5        29.39S WCI  21
CLOQUET        LGT SNOW  27  25  93 E5        29.34F WCI  21
MCGREGOR       CLOUDY    25  23  93 W5        29.38F WCI  19
$$
MNZ071>073-080-081-089-090-097-098-250800-
   Southwest Minnesota

CITY           SKY/WX    TMP DP  RH WIND       PRES   REMARKS
MONTEVIDEO     MOCLDY    12  10  92 NW9G17    29.59R WCI   0
GRANITE FALLS  CLEAR     14  11  88 W17       29.61R WCI  -3
CANBY          CLEAR     19  15  86 W18       29.60S WCI   3
MARSHALL       LGT SNOW  16  13  88 W28       29.59S FOG     WCI  -4
REDWOOD FALLS  CLEAR     15  12  88 W18       29.58R WCI  -2
OLIVIA         CLEAR     16  12  86 W20       29.57R WCI  -1
PIPESTONE      CLOUDY    12  10  92 W14       29.62S WCI  -3
WORTHINGTON    LGT SNOW  14  11  87 W23       29.64R FOG     WCI  -5
JACKSON        CLOUDY    18  14  86 W26G35    29.62R FOG     WCI  -1
TRACY          CLEAR     18  15  90 W15G26    29.59R FOG     WCI   3
SLAYTON        CLOUDY    15  13  90 W18G30    29.61R FOG     WCI  -2
$$
MNZ065>067-074>077-082>085-091>093-250800-
   South Central Minnesota

CITY           SKY/WX    TMP DP  RH WIND       PRES   REMARKS
MANKATO        FLURRIES  19  15  84 W21       29.57R WCI   3
NEW ULM        CLOUDY    18  14  86 W22       29.58R FOG     WCI   0
ST JAMES       CLOUDY    18  14  86 W22G28    29.61R FOG     WCI   0
FAIRMONT       CLOUDY    16  13  88 W24G30    29.62S WCI  -2
GLENCOE        FAIR      17  16  97 W13       29.53R WCI   3
FARIBAULT      CLOUDY    19  18  93 SW13      29.54R WCI   7
OWATONNA       CLOUDY    21  18  86 W23       29.55R FOG     WCI   5
WASECA         MOCLDY    19  18  93 W24       29.58R FOG     WCI   2
ALBERT LEA       N/A     21  18  86 W10G17    29.57R WCI  10
$$
MNZ078>079-086>088-094>096-250800-
   Southeast Minnesota

CITY           SKY/WX    TMP DP  RH WIND       PRES   REMARKS
ROCHESTER      CLOUDY    20  18  92 W23       29.53R FOG     WCI   3
RED WING       MIX PCPN  25  19  80 W15G24    29.50R WCI  12
STANTON        CLOUDY    22  19  86 W15G24    29.51R WCI   9
DODGE CENTER   CLOUDY    19  18  93 W17       29.53R FOG     WCI   4
WINONA         CLOUDY    27  21  80 W12G20    29.53R WCI  16
AUSTIN         CLOUDY    21  18  86 W14G20    29.57R WCI   8
PRESTON        CLOUDY    20  17  88 W16G24    29.55R FOG     WCI   6
$$
ABBREVIATIONS USED IN REMARKS
   TC - TEMPERATURES IN CELSIUS
  WCI - WIND CHILL INDEX
   HX - HEAT INDEX
  VSB - VISIBILITY
$$




USA.gov is the U.S. government's official web portal to all federal, state and local government web resources and services.